Wind_Speed
14 14 14 14 14 15 15 16 16 16 17 17 16 16 18 17 16 15 13 12 11 10 8 8 8 6 5 4 3 2 2 2 1 1 0 0 1 2 3 4 5 5 6
14 13 13 14 13 14 15 15 14 14 15 16 16 17 18 18 17 15 14 12 11 10 9 8 8 6 5 4 3 3 2 1 1 0 0 1 2 3 4 4 5 6 6
13 12 13 13 14 14 14 15 14 13 14 15 15 16 17 18 17 16 15 14 12 11 9 9 8 7 6 5 4 4 3 1 1 1 1 2 2 3 4 5 5 6 7
13 12 13 13 13 13 14 14 13 13 15 15 14 15 16 17 17 17 16 15 14 12 11 10 9 8 6 5 4 4 3 2 2 2 2 3 3 4 5 6 6 6 7
14 13 13 12 12 13 13 13 13 13 14 15 15 15 15 16 18 18 17 15 14 13 12 11 9 8 6 6 5 5 4 3 3 2 3 3 4 5 6 7 7 8 8
14 14 14 12 11 11 11 11 12 13 15 15 15 15 16 16 17 18 18 16 15 14 13 12 10 8 8 7 6 5 5 4 4 3 3 4 5 6 7 8 8 9 9
15 14 13 12 11 10 9 10 11 13 14 15 15 15 16 17 18 18 18 17 16 15 14 12 10 9 9 8 7 6 5 5 5 5 5 5 6 7 8 8 9 9 10
15 13 12 12 11 10 10 10 12 14 14 15 15 17 18 18 18 18 18 17 17 15 14 13 11 10 9 9 8 7 6 6 6 6 6 7 7 8 9 10 10 10 11
15 13 12 12 12 11 11 11 12 13 15 15 16 17 18 18 18 18 18 16 17 16 15 13 12 11 11 10 9 9 8 8 8 8 8 8 9 9 10 11 11 12 12
14 13 12 11 11 11 11 12 12 11 12 14 15 16 17 17 18 18 18 17 17 16 15 13 12 12 12 12 11 10 10 9 9 9 10 10 10 11 12 12 13 13 13
15 13 13 12 12 11 11 11 11 12 12 13 14 15 15 16 17 18 18 18 17 17 16 14 13 12 12 12 12 11 11 11 11 11 12 12 13 13 14 14 14 15 15
15 14 13 12 12 11 12 11 12 12 13 13 14 15 15 16 17 19 18 19 18 17 16 15 13 13 13 12 12 12 13 13 13 13 14 14 14 15 15 16 16 16 17
16 14 13 13 12 12 12 12 11 12 14 14 14 15 16 16 17 18 19 19 18 18 17 16 15 15 14 14 13 13 14 14 14 15 16 16 16 17 17 17 18 18 18
16 15 14 14 13 13 12 12 12 12 13 14 14 15 15 16 17 18 17 18 18 18 18 17 16 16 16 15 14 14 15 15 16 17 17 17 18 19 19 19 19 19 20
17 16 15 14 14 13 13 12 12 13 13 14 14 15 15 16 18 17 17 18 18 18 17 16 16 16 16 16 15 15 16 17 18 18 19 19 20 20 21 21 21 21 22
17 16 15 15 14 13 13 12 13 13 13 14 14 15 15 16 17 18 17 17 17 17 16 16 17 17 16 16 16 17 18 18 19 20 20 21 22 22 22 22 23 23 24
18 17 16 15 15 14 13 13 14 14 14 14 15 16 17 17 17 18 18 18 17 17 16 17 16 17 17 18 18 19 19 20 21 21 22 23 23 23 24 25 25 26 26
18 17 16 14 14 14 14 14 14 14 14 14 15 16 17 17 17 17 17 18 18 17 18 18 18 19 20 20 21 21 22 23 23 24 24 25 25 25 25 26 26 28 29
18 17 16 16 15 15 15 15 14 15 15 15 16 16 16 16 16 17 17 17 17 18 19 19 20 21 21 22 23 23 25 25 25 25 26 27 27 28 28 28 29 30 31
18 18 16 16 16 16 16 15 15 15 16 16 16 17 16 16 16 16 16 17 17 18 18 19 21 21 22 23 24 25 26 26 27 27 28 29 30 30 30 30 31 32 33
19 19 18 17 17 17 18 17 16 16 16 16 16 17 17 17 17 17 17 18 18 18 19 19 20 21 22 23 24 25 25 27 28 28 29 30 31 32 32 33 34 35 36
20 19 19 18 18 19 18 18 17 17 17 17 17 17 17 17 17 17 18 19 19 19 20 20 20 21 22 23 24 25 26 26 27 28 29 30 31 32 34 35 36 38 38
21 20 20 20 20 19 19 19 19 18 17 17 17 17 17 18 18 18 19 19 19 19 20 20 21 22 23 24 25 27 27 28 28 30 31 32 33 34 35 37 38 40 41
21 21 20 20 20 19 19 19 19 19 19 18 18 18 18 18 18 19 19 19 20 20 21 22 23 24 25 26 26 28 29 30 30 32 33 34 35 36 37 38 39 41 42
21 21 21 20 20 20 19 19 19 19 19 19 19 19 19 19 19 20 20 21 22 22 23 24 25 26 26 27 27 28 29 31 33 34 34 36 37 38 39 40 41 42 44
22 22 22 21 21 21 21 20 20 20 21 21 21 21 21 22 22 22 22 24 25 25 26 26 27 27 27 27 28 30 31 32 33 34 36 38 39 40 41 41 42 42 43
Wind_Direction
283 281 278 276 275 266 263 260 255 248 241 241 239 234 228 227 227 225 222 225 223 220 223 221 219 222 232 226 208 209 202 192 189 185 198 325 324 337 335 334 333 332 335
286 285 279 277 271 263 262 260 254 249 239 238 237 233 229 228 227 223 223 223 219 220 215 214 219 221 224 214 207 201 191 181 182 196 321 331 335 339 338 335 336 335 336
284 283 280 276 269 264 259 257 252 242 237 239 238 233 228 226 225 223 223 221 216 216 215 213 218 218 217 216 214 210 207 212 233 278 321 326 328 335 336 333 333 333 333
284 283 280 277 269 264 257 254 248 241 238 238 236 231 229 228 225 221 218 217 216 215 214 212 210 212 218 215 214 221 222 230 251 281 309 321 325 330 333 335 335 334 333
282 280 281 275 266 262 255 253 246 240 238 238 236 232 232 227 224 218 216 215 212 212 214 212 212 214 217 216 221 229 232 234 250 276 299 317 325 327 329 333 334 333 333
282 280 277 274 268 262 254 250 242 240 239 237 235 235 230 224 220 217 217 214 211 213 212 213 214 215 215 217 224 230 235 242 253 270 291 310 320 325 324 326 328 327 327
282 283 275 269 266 260 253 248 245 240 238 235 233 233 223 219 218 218 216 213 212 212 211 212 215 214 216 219 223 230 240 246 256 269 284 299 308 314 318 321 323 323 323
282 283 278 266 262 258 255 252 249 245 239 235 233 228 222 220 218 217 214 212 211 211 212 214 217 218 221 223 227 233 241 249 259 270 282 293 302 306 311 314 316 317 318
280 283 280 268 260 257 257 257 254 248 240 234 229 222 221 220 217 213 208 207 210 212 211 216 218 221 223 227 232 238 246 256 263 271 279 288 294 300 305 308 310 311 313
279 280 279 274 266 262 256 253 251 247 236 228 226 221 219 214 209 209 208 210 211 212 214 217 220 222 226 234 240 244 252 258 265 270 276 282 287 292 298 302 305 307 308
277 278 276 271 268 260 255 247 244 240 231 224 222 220 218 211 207 208 211 211 212 214 219 222 223 227 233 241 244 250 255 260 265 270 275 280 284 290 294 297 300 301 303
274 276 273 267 264 259 250 243 242 238 230 226 225 221 216 214 212 212 214 212 213 217 220 225 227 232 240 246 251 256 258 263 268 272 276 280 284 288 292 294 296 297 300
272 271 268 265 263 258 253 247 245 238 229 225 224 219 217 216 214 214 213 213 216 221 224 228 231 237 245 251 257 261 264 267 271 276 278 280 282 286 289 291 293 295 298
267 266 264 263 261 255 250 247 242 232 225 222 220 216 216 214 212 212 213 215 219 222 227 233 237 242 249 254 259 263 268 271 275 279 280 280 282 285 288 290 292 294 296
265 262 259 259 255 250 246 243 235 228 222 220 218 215 214 213 211 212 215 219 222 226 232 235 240 245 251 256 261 266 270 275 279 281 282 284 285 287 288 289 290 292 294
264 262 262 257 249 243 240 234 227 223 221 219 216 213 213 213 213 217 219 223 226 230 237 241 245 249 253 258 263 267 273 278 281 283 285 286 287 287 288 288 289 291 293
261 259 259 254 244 237 234 229 224 221 220 218 215 215 214 214 217 220 223 227 231 237 243 245 248 251 255 260 264 269 274 279 281 284 286 286 286 287 288 289 290 290 292
256 253 252 247 240 235 233 231 223 221 220 217 214 214 215 216 222 224 226 230 234 240 247 250 251 254 257 261 266 271 276 280 282 283 285 286 287 286 288 289 290 291 292
252 251 249 242 238 235 234 231 224 220 219 218 217 216 217 221 225 227 229 234 239 244 251 254 256 258 260 264 269 273 277 281 282 283 285 287 288 287 288 290 290 291 291
247 247 245 240 237 235 233 230 226 223 222 222 221 222 224 226 229 232 236 239 243 249 255 259 260 261 263 266 270 275 277 279 281 283 284 286 286 287 288 290 291 290 290
244 244 243 239 237 236 232 229 229 227 226 225 224 226 228 231 235 238 241 244 249 254 257 260 262 263 264 267 272 275 278 280 281 283 285 286 286 287 288 289 290 291 290
242 242 242 239 237 236 232 230 228 227 227 226 227 229 232 236 242 244 247 250 253 257 261 263 265 267 269 271 275 279 282 283 284 285 286 287 288 287 288 290 290 291 291
242 243 242 238 235 236 235 231 230 229 230 231 231 233 236 240 244 247 250 252 255 259 261 265 268 270 273 277 278 279 282 285 287 287 288 288 288 289 289 289 290 290 292
241 241 239 236 234 234 233 232 231 232 233 233 235 239 242 245 247 249 251 255 258 261 264 267 270 274 276 279 280 281 282 284 286 287 288 289 290 290 290 291 291 291 292
238 236 235 233 232 233 233 233 234 234 236 237 239 242 244 246 249 252 255 258 260 263 267 270 272 275 278 280 282 284 285 286 287 287 288 290 291 291 291 292 293 293 294
238 235 233 232 233 235 237 238 238 238 240 243 244 246 249 251 254 257 259 262 263 266 269 272 275 278 281 283 285 286 287 288 289 290 291 292 292 293 293 294 294 294 295
Height
5843 5842 5842 5842 5842 5842 5843 5844 5845 5847 5849 5852 5854 5856 5860 5862 5865 5867 5869 5871 5873 5874 5876 5877 5879 5880 5881 5881 5882 5883 5883 5883 5884 5884 5884 5885 5885 5885 5885 5885 5885 5884 5884
5840 5839 5839 5838 5839 5839 5840 5841 5842 5844 5847 5849 5851 5854 5857 5860 5863 5865 5868 5870 5871 5873 5875 5876 5878 5879 5880 5881 5882 5883 5883 5884 5884 5884 5884 5884 5885 5885 5885 5884 5884 5884 5883
5837 5837 5836 5836 5836 5836 5837 5838 5840 5841 5844 5846 5849 5851 5854 5857 5860 5863 5866 5868 5870 5872 5874 5875 5877 5879 5880 5881 5882 5883 5883 5883 5884 5884 5884 5884 5884 5884 5884 5884 5883 5883 5882
5835 5834 5834 5834 5833 5834 5834 5836 5838 5839 5841 5843 5846 5848 5851 5854 5857 5860 5863 5866 5868 5871 5873 5875 5876 5878 5879 5880 5881 5882 5883 5883 5883 5883 5884 5884 5884 5884 5884 5883 5883 5882 5882
5833 5832 5832 5831 5831 5831 5832 5833 5835 5837 5839 5841 5844 5846 5849 5851 5854 5858 5861 5864 5866 5869 5872 5874 5875 5877 5878 5880 5881 5882 5882 5883 5883 5883 5883 5883 5883 5883 5883 5883 5882 5881 5881
5830 5830 5829 5829 5829 5829 5830 5831 5832 5835 5837 5839 5841 5843 5846 5848 5852 5855 5858 5861 5865 5868 5870 5872 5874 5876 5877 5879 5880 5881 5882 5882 5882 5883 5883 5883 5883 5883 5882 5882 5881 5881 5880
5828 5827 5827 5826 5827 5827 5828 5829 5831 5832 5834 5836 5838 5840 5843 5846 5849 5852 5856 5859 5863 5866 5868 5871 5873 5874 5876 5878 5879 5880 5881 5881 5882 5882 5882 5882 5882 5882 5881 5881 5880 5880 5879
5825 5825 5824 5824 5825 5826 5826 5827 5829 5830 5831 5833 5835 5837 5840 5843 5847 5850 5853 5857 5860 5863 5866 5869 5871 5873 5875 5876 5877 5878 5879 5880 5880 5881 5881 5881 5881 5880 5880 5879 5879 5878 5877
5823 5822 5822 5822 5823 5823 5824 5825 5826 5827 5828 5830 5832 5834 5837 5840 5844 5847 5851 5854 5858 5861 5864 5867 5869 5871 5873 5874 5876 5877 5878 5878 5879 5879 5879 5879 5879 5879 5878 5877 5877 5876 5875
5820 5820 5820 5820 5820 5821 5822 5823 5823 5824 5825 5827 5829 5831 5834 5837 5841 5845 5849 5852 5856 5859 5862 5865 5867 5869 5871 5872 5874 5875 5875 5876 5876 5877 5877 5877 5877 5876 5876 5875 5874 5873 5873
5816 5816 5817 5817 5818 5818 5819 5820 5821 5822 5823 5825 5827 5829 5832 5835 5838 5842 5846 5850 5853 5857 5860 5862 5865 5867 5869 5870 5871 5872 5873 5873 5874 5874 5874 5874 5874 5874 5873 5872 5871 5870 5869
5813 5813 5814 5814 5815 5815 5816 5817 5818 5819 5821 5823 5825 5827 5829 5832 5836 5840 5844 5847 5851 5854 5857 5860 5862 5864 5866 5867 5868 5869 5870 5870 5871 5871 5871 5871 5871 5870 5870 5869 5868 5867 5866
5811 5811 5811 5811 5812 5812 5813 5814 5815 5817 5818 5820 5822 5824 5827 5830 5833 5837 5840 5844 5848 5851 5854 5857 5859 5861 5863 5864 5865 5866 5867 5867 5867 5867 5868 5867 5867 5867 5866 5865 5864 5863 5862
5808 5808 5808 5809 5809 5809 5810 5812 5812 5814 5816 5818 5820 5822 5825 5827 5831 5834 5838 5841 5845 5848 5851 5853 5856 5858 5859 5861 5862 5863 5863 5863 5864 5864 5863 5863 5863 5862 5862 5861 5860 5859 5857
5804 5805 5805 5806 5806 5806 5807 5809 5810 5811 5813 5815 5818 5820 5823 5825 5829 5832 5836 5839 5842 5845 5848 5850 5852 5854 5855 5857 5858 5859 5859 5859 5860 5859 5859 5859 5858 5858 5857 5856 5855 5854 5852
5800 5800 5801 5802 5802 5803 5804 5806 5808 5809 5811 5813 5816 5818 5821 5824 5827 5830 5834 5836 5839 5842 5844 5846 5848 5850 5851 5853 5854 5855 5855 5855 5855 5855 5854 5854 5853 5852 5852 5851 5849 5848 5847
5796 5797 5798 5798 5798 5800 5802 5803 5805 5807 5809 5811 5814 5816 5819 5822 5825 5827 5831 5834 5836 5839 5840 5842 5844 5846 5847 5849 5849 5850 5850 5850 5850 5849 5849 5848 5848 5847 5846 5844 5843 5842 5840
5791 5792 5793 5794 5795 5797 5799 5801 5803 5805 5807 5809 5812 5814 5817 5820 5822 5825 5828 5831 5833 5835 5837 5838 5840 5841 5843 5844 5844 5845 5845 5844 5844 5844 5843 5842 5841 5840 5839 5838 5837 5835 5833
5787 5788 5790 5791 5793 5795 5796 5798 5800 5802 5805 5807 5809 5812 5815 5817 5820 5822 5825 5827 5829 5831 5832 5834 5835 5836 5837 5838 5839 5839 5839 5838 5838 5837 5837 5836 5835 5833 5832 5831 5829 5828 5826
5782 5784 5786 5788 5790 5791 5793 5796 5798 5800 5802 5804 5806 5809 5812 5814 5816 5819 5821 5823 5825 5826 5828 5829 5829 5830 5832 5832 5832 5832 5832 5831 5831 5830 5830 5829 5828 5826 5824 5823 5822 5820 5817
5778 5780 5782 5784 5786 5787 5789 5792 5794 5796 5799 5801 5803 5806 5808 5810 5812 5815 5817 5819 5820 5822 5822 5823 5824 5824 5825 5826 5826 5825 5825 5824 5823 5823 5822 5821 5819 5818 5816 5815 5813 5811 5808
5774 5775 5778 5780 5781 5783 5785 5788 5791 5793 5795 5797 5800 5802 5804 5806 5809 5810 5812 5814 5815 5816 5817 5818 5819 5819 5819 5819 5819 5819 5818 5817 5816 5815 5814 5812 5811 5809 5808 5806 5803 5801 5798
5769 5771 5773 5776 5778 5780 5782 5784 5787 5789 5792 5794 5796 5799 5801 5803 5805 5807 5808 5809 5811 5812 5812 5813 5813 5813 5813 5813 5812 5812 5811 5809 5808 5807 5805 5804 5802 5800 5798 5796 5793 5791 5788
5765 5767 5769 5771 5774 5776 5778 5780 5783 5786 5788 5790 5793 5794 5796 5798 5800 5802 5803 5804 5805 5806 5807 5807 5807 5807 5806 5806 5805 5804 5803 5801 5800 5798 5796 5795 5793 5791 5788 5786 5783 5780 5777
5760 5762 5765 5767 5770 5772 5774 5776 5779 5782 5784 5786 5788 5790 5791 5793 5795 5796 5797 5798 5799 5800 5800 5800 5800 5799 5799 5798 5797 5796 5795 5793 5791 5789 5787 5785 5783 5780 5777 5775 5772 5768 5765
5755 5758 5760 5763 5765 5768 5770 5773 5775 5777 5779 5781 5783 5785 5786 5788 5789 5790 5791 5792 5792 5793 5793 5793 5792 5792 5791 5790 5789 5787 5786 5784 5782 5780 5778 5775 5772 5770 5767 5763 5760 5756 5752